This is the latest recevied weather packets stored in our database for station/object VK7TM-1. If no packets are shown the sender has not sent any weather packets the latest 10 day(s).
| Time | Temp. | Humidity | Pressure | Rain* | Wind** | Luminosity | Snow |
|---|---|---|---|---|---|---|---|
| 1778381112 | 16.11° C | 70% | 1032 hPa | 0 mm | - | 350 W/m² | - |
| 1778380822 | 16.67° C | 68% | 1032 hPa | 0 mm | - | 169 W/m² | - |
| 1778380532 | 16.11° C | 68% | 1032 hPa | 0 mm | - | 366 W/m² | - |
| 1778380242 | 16.11° C | 70% | 1032 hPa | 0 mm | - | 408 W/m² | - |
| 1778379952 | 15.56° C | 69% | 1032.1 hPa | 0 mm | - | 417 W/m² | - |
| 1778379662 | 16.11° C | 69% | 1032.1 hPa | 0 mm | - | 420 W/m² | - |
| 1778379372 | 15.56° C | 69% | 1032 hPa | 0 mm | - | 420 W/m² | - |
| 1778379082 | 16.11° C | 68% | 1032.2 hPa | 0 mm | - | 90 W/m² | - |
| 1778378792 | 16.67° C | 67% | 1032.2 hPa | 0 mm | - | 43 W/m² | - |
| 1778378502 | 16.67° C | 68% | 1032.1 hPa | 0 mm | - | 37 W/m² | - |
| 1778378212 | 16.67° C | 68% | 1032.1 hPa | 0 mm | - | 37 W/m² | - |
| 1778377946 | 16.67° C | 66% | 1032.3 hPa | 0 mm | - | 37 W/m² | - |
| 1778377632 | 16.11° C | 67% | 1032.5 hPa | 0 mm | - | 37 W/m² | - |
| 1778377342 | 16.67° C | 68% | 1032.5 hPa | 0 mm | - | 37 W/m² | - |
| 1778377080 | 16.11° C | 68% | 1032.5 hPa | 0 mm | - | 36 W/m² | - |
| 1778376762 | 16.11° C | 67% | 1032.3 hPa | 0 mm | - | 37 W/m² | - |
| 1778376472 | 16.11° C | 66% | 1032.4 hPa | 0 mm | - | 39 W/m² | - |
| 1778376182 | 16.11° C | 65% | 1032.3 hPa | 0 mm | - | 36 W/m² | - |
| 1778375892 | 16.11° C | 68% | 1032.6 hPa | 0 mm | - | 36 W/m² | - |
| 1778375602 | 16.11° C | 65% | 1032.4 hPa | 0 mm | - | 35 W/m² | - |
| 1778375312 | 16.11° C | 62% | 1032.4 hPa | 0 mm | - | 35 W/m² | - |
| 1778375022 | 16.11° C | 65% | 1032.3 hPa | 0 mm | - | 35 W/m² | - |
| 1778374732 | 16.11° C | 69% | 1032.1 hPa | 0 mm | - | 35 W/m² | - |
| 1778374442 | 15.56° C | 66% | 1032.2 hPa | 0 mm | - | 35 W/m² | - |
| 1778374160 | 15.56° C | 66% | 1032.2 hPa | 0 mm | - | 35 W/m² | - |
* Rain latest hour (hover to see other rain measurements)
** Current wind speed in m/s (hover to see current wind gust speed)